LNI3960 WICC-WADD

Flight info

Callsign LNI3960
Flight time 1h 18m
Altitude 33000
Route CLP1N CLP T1 KIDUL KIDUL1A
Aircraft B738/M-SDE2E3FGHIRWXY/LB1

Departure

Time 2026-04-16 14:29
Airport Husein Sastranegara International Airport (WICC)

Arrival

Time 2026-04-16 15:48
Airport Denpasar I Gusti Ngurah Rai International Airport (WADD)
Time Latitude Longitude Altitude Speed Heading
2026-04-16 13:46 -6.90318 107.57948 2438 ft 0 kts 194°
2026-04-16 14:23 -6.90320 107.57948 2438 ft 1 kts 190°
2026-04-16 14:23 -6.90333 107.57952 2438 ft 3 kts 142°
2026-04-16 14:24 -6.90340 107.57971 2438 ft 4 kts 96°
2026-04-16 14:24 -6.90341 107.57987 2438 ft 3 kts 93°
2026-04-16 14:24 -6.90342 107.58019 2438 ft 6 kts 89°
2026-04-16 14:24 -6.90333 107.58069 2438 ft 9 kts 72°
2026-04-16 14:25 -6.90306 107.58104 2438 ft 7 kts 21°
2026-04-16 14:25 -6.90260 107.58123 2438 ft 7 kts 54°
2026-04-16 14:25 -6.90260 107.58180 2438 ft 10 kts 110°
2026-04-16 14:25 -6.90289 107.58262 2438 ft 15 kts 109°
2026-04-16 14:26 -6.90325 107.58368 2438 ft 17 kts 108°
2026-04-16 14:26 -6.90362 107.58480 2438 ft 15 kts 108°
2026-04-16 14:26 -6.90383 107.58552 2438 ft 8 kts 83°
2026-04-16 14:26 -6.90376 107.58579 2438 ft 5 kts 74°
2026-04-16 14:27 -6.90373 107.58604 2438 ft 1 kts 109°
2026-04-16 14:27 -6.90389 107.58615 2438 ft 3 kts 179°
2026-04-16 14:27 -6.90405 107.58599 2438 ft 3 kts 262°
2026-04-16 14:27 -6.90397 107.58580 2438 ft 4 kts 302°
2026-04-16 14:28 -6.90389 107.58563 2438 ft 0 kts 288°
2026-04-16 14:28 -6.90382 107.58541 2438 ft 20 kts 288°
2026-04-16 14:28 -6.90257 107.58172 2438 ft 90 kts 289°
2026-04-16 14:29 -6.89987 107.57382 2440 ft 147 kts 289°
2026-04-16 14:29 -6.89635 107.56350 2847 ft 163 kts 288°
2026-04-16 14:29 -6.89328 107.55241 3585 ft 162 kts 283°
2026-04-16 14:29 -6.89092 107.54137 4354 ft 162 kts 284°
2026-04-16 14:30 -6.88824 107.52978 4792 ft 179 kts 285°
2026-04-16 14:30 -6.88484 107.51713 5322 ft 189 kts 288°
2026-04-16 14:30 -6.88091 107.50488 6187 ft 184 kts 290°
2026-04-16 14:30 -6.87706 107.49223 6660 ft 201 kts 285°
2026-04-16 14:31 -6.87313 107.47771 6987 ft 224 kts 284°
2026-04-16 14:31 -6.86906 107.46201 7318 ft 245 kts 284°
2026-04-16 14:31 -6.86460 107.44493 7877 ft 259 kts 284°
2026-04-16 14:31 -6.85990 107.42706 8496 ft 269 kts 284°
2026-04-16 14:32 -6.85504 107.40868 9104 ft 274 kts 285°
2026-04-16 14:32 -6.85008 107.39001 9757 ft 278 kts 286°
2026-04-16 14:32 -6.84606 107.37086 10578 ft 282 kts 275°
2026-04-16 14:32 -6.84904 107.35115 11345 ft 291 kts 253°
2026-04-16 14:33 -6.85974 107.33343 12002 ft 305 kts 231°
2026-04-16 14:33 -6.87698 107.32058 12734 ft 316 kts 210°
2026-04-16 14:33 -6.89847 107.31469 13377 ft 328 kts 187°
2026-04-16 14:33 -6.92136 107.31710 14050 ft 336 kts 165°
2026-04-16 14:34 -6.94215 107.32736 14693 ft 342 kts 142°
2026-04-16 14:34 -6.95735 107.34553 15256 ft 343 kts 115°
2026-04-16 14:34 -6.96444 107.36876 15498 ft 357 kts 97°
2026-04-16 14:34 -6.96824 107.39421 15714 ft 376 kts 100°
2026-04-16 14:35 -6.97410 107.42047 15919 ft 393 kts 100°
2026-04-16 14:35 -6.97852 107.44812 16113 ft 408 kts 98°
2026-04-16 14:35 -6.98263 107.47689 16337 ft 421 kts 98°
2026-04-16 14:35 -6.98681 107.50630 16767 ft 427 kts 98°
2026-04-16 14:36 -6.99101 107.53596 17285 ft 430 kts 97°
2026-04-16 14:36 -6.99526 107.56591 17803 ft 433 kts 97°
2026-04-16 14:36 -6.99948 107.59570 18623 ft 422 kts 97°
2026-04-16 14:36 -7.00353 107.62433 19853 ft 407 kts 98°
2026-04-16 14:37 -7.00756 107.65279 20197 ft 416 kts 98°
2026-04-16 14:37 -7.01172 107.68216 20350 ft 429 kts 98°
2026-04-16 14:37 -7.01601 107.71243 20490 ft 442 kts 98°
2026-04-16 14:37 -7.02005 107.74309 20649 ft 451 kts 96°
2026-04-16 14:38 -7.02272 107.77473 21052 ft 454 kts 94°
2026-04-16 14:38 -7.02461 107.80653 21473 ft 457 kts 93°
2026-04-16 14:38 -7.02658 107.83863 21863 ft 459 kts 94°
2026-04-16 14:38 -7.02871 107.87082 22241 ft 462 kts 94°
2026-04-16 14:39 -7.03095 107.90316 22610 ft 464 kts 94°
2026-04-16 14:39 -7.03305 107.93573 22970 ft 467 kts 92°
2026-04-16 14:39 -7.03293 107.96854 23313 ft 469 kts 87°
2026-04-16 14:39 -7.02992 108.00130 23648 ft 471 kts 81°
2026-04-16 14:40 -7.02396 108.03373 23971 ft 473 kts 77°
2026-04-16 14:40 -7.01677 108.06572 24285 ft 475 kts 76°
2026-04-16 14:40 -7.00956 108.09839 24595 ft 477 kts 77°
2026-04-16 14:40 -7.00254 108.13123 24894 ft 480 kts 78°
2026-04-16 14:41 -6.99990 108.16467 25169 ft 482 kts 93°
2026-04-16 14:41 -7.00553 108.19781 25443 ft 483 kts 108°
2026-04-16 14:41 -7.01896 108.22875 25732 ft 481 kts 121°
2026-04-16 14:41 -7.03695 108.25641 26739 ft 460 kts 127°
2026-04-16 14:42 -7.05565 108.28140 28092 ft 426 kts 130°
2026-04-16 14:42 -7.07299 108.30330 29276 ft 379 kts 131°
2026-04-16 14:42 -7.08936 108.32396 29409 ft 379 kts 131°
2026-04-16 14:42 -7.10591 108.34491 29439 ft 386 kts 131°
2026-04-16 14:43 -7.12286 108.36643 29465 ft 397 kts 130°
2026-04-16 14:43 -7.14011 108.38840 29622 ft 406 kts 130°
2026-04-16 14:43 -7.15763 108.41074 29727 ft 416 kts 130°
2026-04-16 14:43 -7.17573 108.43387 29827 ft 425 kts 130°
2026-04-16 14:44 -7.19426 108.45756 29956 ft 433 kts 130°
2026-04-16 14:44 -7.21303 108.48155 30175 ft 438 kts 130°
2026-04-16 14:44 -7.23202 108.50584 30401 ft 443 kts 130°
2026-04-16 14:44 -7.25117 108.53035 30628 ft 447 kts 130°
2026-04-16 14:45 -7.27050 108.55510 30854 ft 451 kts 130°
2026-04-16 14:45 -7.29003 108.58013 31081 ft 455 kts 130°
2026-04-16 14:45 -7.30967 108.60531 31307 ft 459 kts 130°
2026-04-16 14:45 -7.32918 108.63034 31530 ft 462 kts 130°
2026-04-16 14:46 -7.34911 108.65590 31757 ft 465 kts 130°
2026-04-16 14:46 -7.36915 108.68162 31983 ft 467 kts 130°
2026-04-16 14:46 -7.38936 108.70756 32210 ft 469 kts 130°
2026-04-16 14:46 -7.41004 108.73410 32441 ft 472 kts 130°
2026-04-16 14:47 -7.43037 108.76020 32667 ft 474 kts 130°
2026-04-16 14:47 -7.45079 108.78642 32893 ft 475 kts 130°
2026-04-16 14:47 -7.49201 108.83933 32933 ft 484 kts 130°
2026-04-16 14:48 -7.53398 108.89328 32935 ft 491 kts 130°
2026-04-16 14:48 -7.57593 108.94724 32935 ft 491 kts 130°
2026-04-16 14:49 -7.61795 109.00129 32935 ft 490 kts 130°
2026-04-16 14:49 -7.66029 109.05550 32935 ft 490 kts 131°
2026-04-16 14:50 -7.70322 109.10875 32935 ft 490 kts 131°
2026-04-16 14:50 -7.74607 109.16200 32934 ft 490 kts 131°
2026-04-16 14:51 -7.78897 109.21540 32935 ft 490 kts 131°
2026-04-16 14:51 -7.83188 109.26887 32935 ft 490 kts 131°
2026-04-16 14:53 -8.00333 109.48258 32935 ft 490 kts 131°
2026-04-16 14:54 -8.04621 109.53611 32935 ft 490 kts 131°
2026-04-16 14:54 -8.08917 109.58976 32935 ft 490 kts 131°
2026-04-16 14:55 -8.13208 109.64336 32935 ft 490 kts 131°
2026-04-16 14:55 -8.17468 109.69661 32935 ft 490 kts 131°
2026-04-16 14:56 -8.21762 109.75029 32935 ft 490 kts 131°
2026-04-16 14:56 -8.26040 109.80381 32935 ft 490 kts 131°
2026-04-16 14:57 -8.30334 109.85754 32935 ft 490 kts 130°
2026-04-16 14:57 -8.34586 109.91077 32935 ft 490 kts 130°
2026-04-16 14:58 -8.40861 109.98936 32934 ft 462 kts 131°
2026-04-16 14:58 -8.42856 110.01435 32934 ft 451 kts 130°
2026-04-16 14:59 -8.44813 110.03886 32911 ft 449 kts 126°
2026-04-16 14:59 -8.48761 110.08835 32936 ft 455 kts 126°
2026-04-16 15:00 -8.51700 110.12520 32935 ft 460 kts 126°
2026-04-16 15:00 -8.55703 110.17542 32925 ft 460 kts 126°
2026-04-16 15:01 -8.60418 110.23458 32935 ft 469 kts 126°
2026-04-16 15:01 -8.63823 110.27732 32935 ft 467 kts 126°
2026-04-16 15:02 -8.68558 110.33678 32935 ft 463 kts 126°
2026-04-16 15:02 -8.71921 110.37903 32935 ft 465 kts 126°
2026-04-16 15:03 -8.75986 110.43011 32935 ft 464 kts 126°
2026-04-16 15:03 -8.80008 110.48068 32934 ft 460 kts 126°
2026-04-16 15:04 -8.84044 110.53141 32935 ft 463 kts 126°
2026-04-16 15:04 -8.88082 110.58218 32936 ft 464 kts 126°
2026-04-16 15:05 -8.92115 110.63296 32927 ft 461 kts 126°
2026-04-16 15:05 -8.96149 110.68379 32935 ft 471 kts 126°
2026-04-16 15:06 -9.00203 110.73677 32930 ft 477 kts 118°
2026-04-16 15:06 -9.01646 110.76681 32935 ft 476 kts 107°
2026-04-16 15:06 -9.02451 110.79909 32937 ft 473 kts 95°
2026-04-16 15:07 -9.02843 110.86486 32935 ft 468 kts 87°
2026-04-16 15:07 -9.02838 110.93110 32935 ft 467 kts 87°
2026-04-16 15:08 -9.02838 110.99669 32935 ft 468 kts 87°
2026-04-16 15:08 -9.02847 111.06256 32935 ft 468 kts 87°
2026-04-16 15:09 -9.02863 111.12781 32935 ft 468 kts 87°
2026-04-16 15:09 -9.02886 111.19370 32935 ft 468 kts 87°
2026-04-16 15:10 -9.02908 111.25952 32935 ft 467 kts 87°
2026-04-16 15:10 -9.02929 111.32532 32935 ft 467 kts 87°
2026-04-16 15:11 -9.02948 111.39118 32935 ft 467 kts 87°
2026-04-16 15:11 -9.02966 111.45654 32935 ft 467 kts 87°
2026-04-16 15:12 -9.02982 111.52241 32935 ft 467 kts 87°
2026-04-16 15:12 -9.02998 111.58817 32935 ft 467 kts 87°
2026-04-16 15:13 -9.03012 111.65399 32935 ft 467 kts 87°
2026-04-16 15:13 -9.03025 111.71994 32935 ft 467 kts 87°
2026-04-16 15:14 -9.03037 111.78530 32935 ft 467 kts 87°
2026-04-16 15:14 -9.03048 111.85111 32935 ft 467 kts 87°
2026-04-16 15:15 -9.03058 111.91696 32935 ft 467 kts 87°
2026-04-16 15:15 -9.03066 111.98241 32935 ft 467 kts 87°
2026-04-16 15:16 -9.03073 112.04820 32935 ft 467 kts 87°
2026-04-16 15:16 -9.03079 112.11404 32935 ft 467 kts 87°
2026-04-16 15:17 -9.03084 112.17978 32935 ft 467 kts 87°
2026-04-16 15:17 -9.03088 112.24565 32935 ft 467 kts 87°
2026-04-16 15:18 -9.03091 112.31094 32934 ft 465 kts 87°
2026-04-16 15:18 -9.03094 112.37639 32935 ft 465 kts 87°
2026-04-16 15:19 -9.03098 112.44183 32935 ft 462 kts 87°
2026-04-16 15:19 -9.03096 112.50651 32938 ft 455 kts 89°
2026-04-16 15:20 -9.03093 112.56987 32935 ft 446 kts 89°
2026-04-16 15:20 -9.03088 112.63219 32935 ft 446 kts 89°
2026-04-16 15:21 -9.03079 112.69509 32935 ft 448 kts 88°
2026-04-16 15:21 -9.03004 112.75826 32934 ft 452 kts 86°
2026-04-16 15:22 -9.02923 112.82243 32935 ft 458 kts 86°
2026-04-16 15:22 -9.02841 112.88694 32934 ft 456 kts 86°
2026-04-16 15:23 -9.02759 112.95091 32935 ft 453 kts 86°
2026-04-16 15:23 -9.02675 113.01468 32918 ft 455 kts 86°
2026-04-16 15:23 -9.02635 113.04683 32668 ft 455 kts 86°
2026-04-16 15:24 -9.02597 113.07846 32420 ft 455 kts 86°
2026-04-16 15:24 -9.02558 113.11047 32171 ft 455 kts 86°
2026-04-16 15:24 -9.02518 113.14249 31920 ft 454 kts 87°
2026-04-16 15:24 -9.02477 113.17444 31670 ft 453 kts 87°
2026-04-16 15:25 -9.02436 113.20621 31420 ft 451 kts 90°
2026-04-16 15:25 -9.02395 113.23782 31033 ft 446 kts 89°
2026-04-16 15:25 -9.02354 113.26916 30251 ft 445 kts 89°
2026-04-16 15:25 -9.02312 113.30034 29667 ft 442 kts 89°
2026-04-16 15:26 -9.02271 113.33129 29104 ft 438 kts 89°
2026-04-16 15:26 -9.02229 113.36204 28549 ft 434 kts 89°
2026-04-16 15:26 -9.02189 113.39199 28008 ft 430 kts 89°
2026-04-16 15:26 -9.02147 113.42224 27461 ft 427 kts 89°
2026-04-16 15:27 -9.02106 113.45209 26918 ft 423 kts 91°
2026-04-16 15:27 -9.02065 113.48178 26376 ft 420 kts 91°
2026-04-16 15:27 -9.02024 113.51132 25837 ft 416 kts 91°
2026-04-16 15:27 -9.01983 113.54053 25303 ft 413 kts 91°
2026-04-16 15:28 -9.01942 113.56946 24772 ft 410 kts 91°
2026-04-16 15:28 -9.01901 113.59820 24243 ft 407 kts 91°
2026-04-16 15:28 -9.01861 113.62638 23723 ft 404 kts 91°
2026-04-16 15:28 -9.01820 113.65474 23197 ft 401 kts 92°
2026-04-16 15:29 -9.01779 113.68299 22647 ft 401 kts 92°
2026-04-16 15:29 -9.01779 113.68318 22643 ft 401 kts 92°
2026-04-16 15:29 -9.01750 113.70496 22163 ft 407 kts 89°
2026-04-16 15:29 -9.01707 113.73407 21601 ft 421 kts 89°
2026-04-16 15:30 -9.01663 113.76399 21048 ft 429 kts 89°
2026-04-16 15:30 -9.01618 113.79426 20486 ft 431 kts 89°
2026-04-16 15:30 -9.01573 113.82451 19923 ft 430 kts 89°
2026-04-16 15:30 -9.01528 113.85486 19353 ft 429 kts 89°
2026-04-16 15:31 -9.01482 113.88498 18788 ft 427 kts 89°
2026-04-16 15:31 -9.01439 113.91515 18227 ft 425 kts 89°
2026-04-16 15:31 -9.01396 113.94495 17669 ft 423 kts 89°
2026-04-16 15:31 -9.01352 113.97434 17125 ft 421 kts 89°
2026-04-16 15:32 -9.01308 114.00388 16576 ft 419 kts 89°
2026-04-16 15:32 -9.01262 114.03332 16026 ft 417 kts 89°
2026-04-16 15:32 -9.01216 114.06290 15478 ft 414 kts 89°
2026-04-16 15:32 -9.01170 114.09169 14948 ft 412 kts 89°
2026-04-16 15:33 -9.01124 114.12062 14414 ft 410 kts 89°
2026-04-16 15:33 -9.01078 114.14940 13875 ft 408 kts 89°
2026-04-16 15:33 -9.01032 114.17796 13359 ft 405 kts 89°
2026-04-16 15:33 -9.00967 114.20632 12853 ft 402 kts 86°
2026-04-16 15:34 -9.00649 114.23426 12382 ft 398 kts 79°
2026-04-16 15:34 -9.00012 114.26149 11915 ft 394 kts 72°
2026-04-16 15:34 -8.99151 114.28742 11517 ft 381 kts 69°
2026-04-16 15:34 -8.98248 114.31164 11311 ft 364 kts 68°
2026-04-16 15:35 -8.97355 114.33539 11107 ft 349 kts 68°
2026-04-16 15:35 -8.96527 114.35767 10912 ft 336 kts 68°
2026-04-16 15:35 -8.95726 114.37945 10721 ft 324 kts 68°
2026-04-16 15:35 -8.94963 114.40042 10537 ft 313 kts 68°
2026-04-16 15:36 -8.94225 114.42077 10358 ft 302 kts 68°
2026-04-16 15:36 -8.93515 114.44039 10185 ft 292 kts 68°
2026-04-16 15:36 -8.92821 114.45961 10011 ft 292 kts 68°
2026-04-16 15:36 -8.92116 114.47915 9734 ft 298 kts 68°
2026-04-16 15:37 -8.91377 114.49965 9428 ft 301 kts 68°
2026-04-16 15:37 -8.90892 114.51311 9221 ft 301 kts 68°
2026-04-16 15:37 -8.90169 114.53318 8912 ft 303 kts 69°
2026-04-16 15:37 -8.89450 114.55316 8597 ft 303 kts 69°
2026-04-16 15:38 -8.88727 114.57326 8276 ft 304 kts 69°
2026-04-16 15:38 -8.87769 114.59988 7849 ft 304 kts 69°
2026-04-16 15:38 -8.87049 114.61987 7528 ft 304 kts 69°
2026-04-16 15:38 -8.86567 114.63328 7311 ft 304 kts 69°
2026-04-16 15:39 -8.85843 114.65338 6983 ft 304 kts 69°
2026-04-16 15:39 -8.85120 114.67347 6653 ft 304 kts 69°
2026-04-16 15:39 -8.84364 114.69335 6440 ft 298 kts 68°
2026-04-16 15:39 -8.83582 114.71256 6146 ft 295 kts 68°
2026-04-16 15:40 -8.82792 114.73193 5798 ft 294 kts 68°
2026-04-16 15:40 -8.82024 114.75071 5465 ft 292 kts 68°
2026-04-16 15:40 -8.81256 114.76949 5129 ft 284 kts 68°
2026-04-16 15:40 -8.80511 114.78768 4807 ft 276 kts 68°
2026-04-16 15:41 -8.79789 114.80532 4495 ft 269 kts 68°
2026-04-16 15:41 -8.79072 114.82282 4179 ft 268 kts 68°
2026-04-16 15:41 -8.78357 114.84029 3861 ft 267 kts 68°
2026-04-16 15:41 -8.77653 114.85750 3665 ft 262 kts 68°
2026-04-16 15:42 -8.76977 114.87400 3507 ft 250 kts 68°
2026-04-16 15:42 -8.76327 114.88982 3366 ft 238 kts 68°
2026-04-16 15:42 -8.75725 114.90497 3240 ft 228 kts 72°
2026-04-16 15:42 -8.75429 114.92050 3114 ft 223 kts 85°
2026-04-16 15:43 -8.75398 114.93592 2997 ft 218 kts 91°
2026-04-16 15:43 -8.75435 114.95116 2882 ft 216 kts 91°
2026-04-16 15:43 -8.75465 114.96641 2765 ft 219 kts 91°
2026-04-16 15:43 -8.75494 114.98171 2666 ft 215 kts 91°
2026-04-16 15:44 -8.75505 114.99658 2536 ft 208 kts 89°
2026-04-16 15:44 -8.75455 115.01070 2512 ft 191 kts 88°
2026-04-16 15:44 -8.75403 115.02368 2465 ft 179 kts 88°
2026-04-16 15:44 -8.75355 115.03591 2301 ft 170 kts 88°
2026-04-16 15:45 -8.75309 115.04775 2077 ft 167 kts 88°
2026-04-16 15:45 -8.75264 115.05916 1861 ft 157 kts 88°
2026-04-16 15:45 -8.75223 115.06982 1674 ft 150 kts 88°
2026-04-16 15:45 -8.75183 115.08019 1468 ft 145 kts 88°
2026-04-16 15:46 -8.75143 115.09027 1288 ft 145 kts 88°
2026-04-16 15:46 -8.75104 115.10047 1106 ft 146 kts 88°
2026-04-16 15:46 -8.75064 115.11060 910 ft 145 kts 88°
2026-04-16 15:46 -8.75012 115.12083 680 ft 146 kts 87°
2026-04-16 15:47 -8.74968 115.13105 507 ft 142 kts 89°
2026-04-16 15:47 -8.74943 115.14095 308 ft 141 kts 88°
2026-04-16 15:47 -8.74901 115.15073 118 ft 140 kts 88°
2026-04-16 15:47 -8.74870 115.16054 23 ft 131 kts 85°
2026-04-16 15:48 -8.74844 115.16692 22 ft 47 kts 88°
2026-04-16 15:48 -8.74830 115.17009 22 ft 42 kts 88°
2026-04-16 15:48 -8.74823 115.17210 22 ft 15 kts 87°
2026-04-16 15:48 -8.74805 115.17290 22 ft 9 kts 50°
2026-04-16 15:49 -8.74752 115.17313 22 ft 8 kts 359°
2026-04-16 15:49 -8.74693 115.17311 22 ft 9 kts 347°
2026-04-16 15:49 -8.74653 115.17272 22 ft 7 kts 281°
2026-04-16 15:49 -8.74653 115.17221 22 ft 9 kts 268°
2026-04-16 15:50 -8.74656 115.17140 22 ft 14 kts 267°
2026-04-16 15:50 -8.74661 115.17024 22 ft 18 kts 267°
2026-04-16 15:50 -8.74667 115.16884 22 ft 21 kts 268°
2026-04-16 15:50 -8.74673 115.16725 22 ft 23 kts 267°
2026-04-16 15:51 -8.74680 115.16570 22 ft 22 kts 268°
2026-04-16 15:51 -8.74685 115.16422 22 ft 12 kts 268°
2026-04-16 15:51 -8.74689 115.16325 22 ft 13 kts 268°
2026-04-16 15:51 -8.74692 115.16236 22 ft 14 kts 268°
2026-04-16 15:52 -8.74695 115.16154 22 ft 8 kts 268°
2026-04-16 15:52 -8.74697 115.16114 22 ft 8 kts 273°
2026-04-16 15:52 -8.74651 115.16070 22 ft 11 kts 356°
2026-04-16 15:52 -8.74591 115.16067 22 ft 7 kts 357°
2026-04-16 15:53 -8.74551 115.16066 22 ft 4 kts
2026-04-16 15:53 -8.74532 115.16087 22 ft 2 kts 75°
2026-04-16 15:53 -8.74529 115.16107 22 ft 2 kts 85°
2026-04-16 15:53 -8.74528 115.16124 22 ft 2 kts 85°
2026-04-16 15:54 -8.74528 115.16130 22 ft 1 kts 86°
2026-04-16 15:54 -8.74528 115.16132 22 ft 0 kts 86°